| time (UTC) | temp C | wind direction | speed KPH | gust KPH | rain 1hr cm | rain 24hr cm | rain mn cm | humidity % | barometer mb |
| 20260906111239 | 19 | 165 | 16.1 | 29.0 | 0.00 | 0.08 | 0.05 | 89 | 1014.0 |
| 20260906110739 | 18 | 188 | 14.5 | 25.7 | 0.00 | 0.08 | 0.05 | 89 | 1014.1 |
| 20260906105239 | 18 | 201 | 14.5 | 29.0 | 0.00 | 0.08 | 0.05 | 88 | 1014.2 |
| 20260906104739 | 18 | 191 | 12.9 | 27.4 | 0.00 | 0.08 | 0.05 | 88 | 1014.2 |
| 20260906104239 | 18 | 206 | 8.0 | 24.1 | 0.00 | 0.08 | 0.05 | 89 | 1014.3 |
| 20260906103741 | 18 | 170 | 14.5 | 29.0 | 0.00 | 0.08 | 0.05 | 89 | 1014.2 |
| 20260906103239 | 18 | 186 | 16.1 | 29.0 | 0.00 | 0.08 | 0.05 | 89 | 1014.3 |
| 20260906102240 | 18 | 169 | 14.5 | 20.9 | 0.00 | 0.08 | 0.05 | 90 | 1014.4 |
| 20260906101741 | 18 | 165 | 11.3 | 24.1 | 0.00 | 0.08 | 0.05 | 90 | 1014.5 |
| 20260906101240 | 18 | 185 | 12.9 | 24.1 | 0.00 | 0.08 | 0.05 | 90 | 1014.6 |
| 20260906100741 | 18 | 168 | 11.3 | 22.5 | 0.00 | 0.08 | 0.05 | 89 | 1014.8 |
| 20260906100239 | 18 | 182 | 12.9 | 22.5 | 0.00 | 0.08 | 0.05 | 89 | 1014.8 |
| 20260906095741 | 18 | 188 | 11.3 | 27.4 | 0.00 | 0.08 | 0.05 | 89 | 1014.9 |
| 20260906095241 | 18 | 175 | 9.7 | 27.4 | 0.00 | 0.08 | 0.05 | 89 | 1015.0 |
| 20260906093241 | 18 | 179 | 14.5 | 27.4 | 0.00 | 0.08 | 0.05 | 87 | 1015.1 |
| 20260906092240 | 18 | 162 | 11.3 | 24.1 | 0.00 | 0.08 | 0.05 | 87 | 1015.1 |
| 20260906091739 | 18 | 166 | 11.3 | 20.9 | 0.00 | 0.08 | 0.05 | 88 | 1015.1 |
| 20260906090740 | 18 | 156 | 16.1 | 25.7 | 0.00 | 0.08 | 0.05 | 87 | 1015.0 |
| 20260906090241 | 18 | 142 | 14.5 | 22.5 | 0.00 | 0.08 | 0.05 | 87 | 1015.0 |
| 20260906085741 | 18 | 150 | 11.3 | 16.1 | 0.00 | 0.08 | 0.05 | 88 | 1015.1 |
| 20260906084740 | 18 | 174 | 11.3 | 24.1 | 0.00 | 0.08 | 0.05 | 89 | 1015.3 |
| 20260906084241 | 18 | 150 | 11.3 | 22.5 | 0.00 | 0.08 | 0.05 | 89 | 1015.3 |
| 20260906083740 | 18 | 179 | 12.9 | 24.1 | 0.00 | 0.08 | 0.05 | 89 | 1015.4 |
| 20260906083241 | 18 | 178 | 12.9 | 25.7 | 0.00 | 0.08 | 0.05 | 88 | 1015.6 |
| 20260906082740 | 18 | 169 | 12.9 | 27.4 | 0.00 | 0.08 | 0.05 | 88 | 1015.5 |
| 20260906082242 | 18 | 177 | 12.9 | 24.1 | 0.00 | 0.08 | 0.05 | 88 | 1015.5 |
| 20260906081742 | 18 | 176 | 9.7 | 24.1 | 0.00 | 0.08 | 0.05 | 89 | 1015.6 |
| 20260906081241 | 18 | 149 | 17.7 | 27.4 | 0.00 | 0.08 | 0.05 | 89 | 1015.7 |
| 20260906080742 | 18 | 137 | 11.3 | 22.5 | 0.00 | 0.08 | 0.05 | 89 | 1015.8 |
| 20260906080240 | 18 | 174 | 9.7 | 22.5 | 0.00 | 0.08 | 0.05 | 90 | 1015.9 |
| 20260906075741 | 17 | 162 | 11.3 | 20.9 | 0.00 | 0.08 | 0.05 | 90 | 1015.9 |
| 20260906074741 | 17 | 166 | 12.9 | 22.5 | 0.00 | 0.08 | 0.05 | 90 | 1016.0 |
| 20260906073741 | 17 | 183 | 14.5 | 25.7 | 0.00 | 0.08 | 0.05 | 91 | 1015.9 |
| 20260906073241 | 17 | 172 | 9.7 | 25.7 | 0.00 | 0.08 | 0.05 | 92 | 1015.8 |
| 20260906071241 | 17 | 169 | 8.0 | 22.5 | 0.00 | 0.08 | 0.05 | 92 | 1016.2 |
| 20260906070742 | 17 | 188 | 11.3 | 20.9 | 0.00 | 0.08 | 0.05 | 92 | 1016.3 |
| 20260906070243 | 17 | 167 | 11.3 | 20.9 | 0.00 | 0.08 | 0.05 | 92 | 1016.3 |
| 20260906065741 | 16 | 176 | 11.3 | 22.5 | 0.00 | 0.08 | 0.05 | 93 | 1016.3 |
| 20260906065242 | 16 | 177 | 9.7 | 19.3 | 0.00 | 0.08 | 0.05 | 93 | 1016.3 |
| 20260906064741 | 16 | 153 | 9.7 | 20.9 | 0.00 | 0.08 | 0.05 | 93 | 1016.3 |
| 20260906064241 | 16 | 171 | 11.3 | 19.3 | 0.00 | 0.08 | 0.05 | 93 | 1016.3 |
| 20260906063742 | 16 | 172 | 11.3 | 19.3 | 0.00 | 0.08 | 0.05 | 94 | 1016.2 |
| 20260906063241 | 16 | 167 | 11.3 | 16.1 | 0.00 | 0.08 | 0.05 | 94 | 1016.2 |
| 20260906062742 | 16 | 168 | 14.5 | 20.9 | 0.00 | 0.08 | 0.05 | 94 | 1016.3 |
| 20260906062242 | 16 | 162 | 11.3 | 20.9 | 0.00 | 0.08 | 0.05 | 94 | 1016.4 |
| 20260906061742 | 16 | 182 | 8.0 | 22.5 | 0.00 | 0.08 | 0.05 | 94 | 1016.5 |
| 20260906061241 | 16 | 163 | 14.5 | 25.7 | 0.00 | 0.08 | 0.05 | 94 | 1016.5 |
| 20260906060743 | 16 | 172 | 11.3 | 25.7 | 0.00 | 0.08 | 0.05 | 94 | 1016.4 |
| 20260906060241 | 16 | 152 | 11.3 | 22.5 | 0.00 | 0.08 | 0.05 | 94 | 1016.5 |
| 20260906055742 | 16 | 173 | 14.5 | 25.7 | 0.00 | 0.08 | 0.05 | 94 | 1016.6 |
| 20260906054743 | 16 | 178 | 9.7 | 19.3 | 0.00 | 0.08 | 0.05 | 94 | 1016.8 |
| 20260906053744 | 16 | 152 | 9.7 | 25.7 | 0.00 | 0.08 | 0.05 | 93 | 1016.8 |
| 20260906052742 | 16 | 173 | 9.7 | 20.9 | 0.00 | 0.08 | 0.05 | 93 | 1016.9 |
| 20260906052242 | 16 | 167 | 8.0 | 16.1 | 0.00 | 0.08 | 0.05 | 93 | 1017.0 |
| 20260906051244 | 16 | 173 | 6.4 | 19.3 | 0.00 | 0.08 | 0.05 | 93 | 1017.0 |
| 20260906050741 | 16 | 170 | 9.7 | 19.3 | 0.00 | 0.08 | 0.05 | 93 | 1017.1 |
| 20260906050242 | 16 | 161 | 11.3 | 20.9 | 0.00 | 0.08 | 0.05 | 93 | 1017.1 |
| 20260906045743 | 16 | 167 | 8.0 | 22.5 | 0.00 | 0.08 | 0.05 | 94 | 1017.2 |
| 20260906045242 | 16 | 179 | 9.7 | 20.9 | 0.00 | 0.08 | 0.05 | 94 | 1017.1 |
| 20260906044242 | 16 | 157 | 11.3 | 19.3 | 0.00 | 0.08 | 0.05 | 95 | 1017.2 |
| 20260906043742 | 16 | 164 | 9.7 | 16.1 | 0.00 | 0.08 | 0.05 | 95 | 1017.2 |
| 20260906043243 | 16 | 153 | 8.0 | 20.9 | 0.00 | 0.08 | 0.05 | 95 | 1017.2 |
| 20260906041743 | 16 | 156 | 11.3 | 16.1 | 0.00 | 0.08 | 0.05 | 96 | 1017.2 |
| 20260906041242 | 16 | 178 | 9.7 | 19.3 | 0.00 | 0.08 | 0.05 | 96 | 1017.2 |
| 20260906040743 | 17 | 178 | 8.0 | 19.3 | 0.00 | 0.08 | 0.05 | 96 | 1017.2 |
| 20260906040242 | 17 | 135 | 11.3 | 25.7 | 0.00 | 0.08 | 0.05 | 96 | 1017.3 |
| 20260906035742 | 17 | 159 | 9.7 | 16.1 | 0.00 | 0.08 | 0.05 | 96 | 1017.3 |
| 20260906034243 | 17 | 172 | 11.3 | 22.5 | 0.00 | 0.08 | 0.05 | 96 | 1017.5 |
| 20260906033743 | 17 | 177 | 6.4 | 16.1 | 0.00 | 0.08 | 0.05 | 96 | 1017.6 |
| 20260906033243 | 17 | 165 | 9.7 | 14.5 | 0.00 | 0.08 | 0.05 | 96 | 1017.6 |
| 20260906032744 | 17 | 167 | 8.0 | 14.5 | 0.00 | 0.08 | 0.05 | 96 | 1017.6 |
| 20260906032243 | 17 | 146 | 8.0 | 12.9 | 0.00 | 0.08 | 0.05 | 96 | 1017.7 |
| 20260906031244 | 17 | 171 | 9.7 | 14.5 | 0.00 | 0.08 | 0.05 | 96 | 1017.8 |
| 20260906030744 | 17 | 180 | 6.4 | 12.9 | 0.00 | 0.08 | 0.05 | 96 | 1017.9 |
| 20260906030243 | 17 | 175 | 9.7 | 14.5 | 0.00 | 0.08 | 0.05 | 97 | 1017.9 |
| 20260906025244 | 17 | 163 | 8.0 | 14.5 | 0.00 | 0.08 | 0.05 | 97 | 1018.0 |
| 20260906024744 | 17 | 177 | 8.0 | 22.5 | 0.00 | 0.08 | 0.05 | 97 | 1018.0 |
| 20260906024244 | 17 | 157 | 11.3 | 20.9 | 0.00 | 0.08 | 0.05 | 97 | 1018.1 |
| 20260906023243 | 17 | 166 | 12.9 | 19.3 | 0.00 | 0.08 | 0.05 | 97 | 1018.2 |
| 20260906022243 | 17 | 165 | 11.3 | 22.5 | 0.00 | 0.08 | 0.05 | 97 | 1018.2 |
| 20260906021744 | 17 | 180 | 11.3 | 20.9 | 0.00 | 0.08 | 0.05 | 97 | 1018.3 |
| 20260906021245 | 17 | 156 | 9.7 | 19.3 | 0.00 | 0.08 | 0.05 | 97 | 1018.4 |
| 20260906020745 | 17 | 177 | 9.7 | 20.9 | 0.00 | 0.08 | 0.05 | 97 | 1018.5 |
| 20260906020244 | 17 | 179 | 3.2 | 19.3 | 0.00 | 0.08 | 0.05 | 97 | 1018.6 |
| 20260906015744 | 17 | 173 | 8.0 | 16.1 | 0.00 | 0.08 | 0.05 | 97 | 1018.7 |
| 20260906015245 | 17 | 172 | 4.8 | 16.1 | 0.00 | 0.08 | 0.05 | 97 | 1018.7 |
| 20260906014743 | 17 | 176 | 8.0 | 19.3 | 0.03 | 0.08 | 0.05 | 97 | 1018.7 |
| 20260906014244 | 17 | 181 | 6.4 | 20.9 | 0.03 | 0.08 | 0.05 | 96 | 1018.7 |
| 20260906013745 | 17 | 185 | 6.4 | 16.1 | 0.03 | 0.08 | 0.05 | 97 | 1018.9 |
| 20260906013244 | 17 | 167 | 8.0 | 16.1 | 0.03 | 0.08 | 0.05 | 96 | 1019.0 |
| 20260906012743 | 17 | 194 | 4.8 | 11.3 | 0.03 | 0.08 | 0.05 | 96 | 1019.1 |
| 20260906012244 | 17 | 179 | 4.8 | 14.5 | 0.03 | 0.08 | 0.05 | 97 | 1019.1 |
| 20260906011744 | 17 | 154 | 8.0 | 19.3 | 0.03 | 0.08 | 0.05 | 97 | 1019.0 |
| 20260906010744 | 16 | 182 | 8.0 | 14.5 | 0.03 | 0.08 | 0.05 | 96 | 1019.1 |
| 20260906010244 | 16 | 165 | 8.0 | 14.5 | 0.05 | 0.08 | 0.05 | 96 | 1019.3 |
| 20260906005744 | 16 | 158 | 8.0 | 14.5 | 0.05 | 0.08 | 0.05 | 96 | 1019.3 |
| 20260906005245 | 16 | 174 | 9.7 | 19.3 | 0.05 | 0.08 | 0.05 | 96 | 1019.4 |
| 20260906004744 | 16 | 173 | 8.0 | 16.1 | 0.03 | 0.05 | 0.05 | 96 | 1019.5 |
| 20260906004245 | 16 | 178 | 3.2 | 16.1 | 0.03 | 0.05 | 0.05 | 97 | 1019.6 |
| 20260906003244 | 16 | 162 | 9.7 | 16.1 | 0.03 | 0.05 | 0.05 | 97 | 1019.8 |
| 20260906002745 | 16 | 170 | 4.8 | 12.9 | 0.03 | 0.05 | 0.05 | 97 | 1019.9 |
| 20260906002244 | 16 | 182 | 6.4 | 20.9 | 0.03 | 0.05 | 0.05 | 97 | 1020.0 |
| 20260906001744 | 16 | 174 | 6.4 | 16.1 | 0.03 | 0.05 | 0.05 | 97 | 1020.1 |
| 20260906001245 | 16 | 180 | 8.0 | 16.1 | 0.03 | 0.05 | 0.05 | 97 | 1020.2 |
| 20260906000745 | 16 | 189 | 6.4 | 12.9 | 0.03 | 0.05 | 0.05 | 97 | 1020.3 |
| 20260906000244 | 16 | 169 | 4.8 | 14.5 | 0.03 | 0.05 | 0.03 | 97 | 1020.4 |
| 20260905235245 | 16 | 191 | 4.8 | 9.7 | 0.00 | 0.05 | 0.03 | 97 | 1020.4 |
| 20260905234745 | 16 | 174 | 4.8 | 11.3 | 0.00 | 0.05 | 0.03 | 97 | 1020.4 |
| 20260905234244 | 16 | 183 | 8.0 | 20.9 | 0.00 | 0.05 | 0.03 | 96 | 1020.3 |
| 20260905233746 | 16 | 186 | 4.8 | 14.5 | 0.00 | 0.05 | 0.03 | 96 | 1020.4 |
| 20260905233245 | 16 | 183 | 4.8 | 12.9 | 0.00 | 0.05 | 0.03 | 96 | 1020.4 |
| 20260905232745 | 16 | 178 | 4.8 | 12.9 | 0.00 | 0.05 | 0.03 | 96 | 1020.6 |
| 20260905232245 | 16 | 193 | 9.7 | 19.3 | 0.00 | 0.05 | 0.03 | 96 | 1020.6 |
| 20260905231246 | 16 | 174 | 4.8 | 11.3 | 0.03 | 0.05 | 0.03 | 96 | 1020.7 |
| 20260905230246 | 16 | 159 | 4.8 | 9.7 | 0.00 | 0.03 | 0.00 | 96 | 1020.8 |
| 20260905225246 | 16 | 163 | 1.6 | 8.0 | 0.03 | 0.03 | 0.03 | 96 | 1020.8 |
| 20260905224746 | 16 | 163 | 4.8 | 9.7 | 0.03 | 0.03 | 0.03 | 96 | 1020.9 |
| 20260905224245 | 16 | 162 | 4.8 | 12.9 | 0.03 | 0.03 | 0.03 | 96 | 1020.9 |
| 20260905223745 | 16 | 164 | 3.2 | 11.3 | 0.03 | 0.03 | 0.03 | 96 | 1020.9 |
| 20260905223245 | 16 | 140 | 1.6 | 8.0 | 0.03 | 0.03 | 0.03 | 96 | 1020.9 |
| 20260905222747 | 16 | 144 | 3.2 | 8.0 | 0.03 | 0.03 | 0.03 | 96 | 1020.9 |
| 20260905222245 | 16 | 145 | 3.2 | 9.7 | 0.03 | 0.03 | 0.03 | 96 | 1021.0 |
| 20260905221746 | 16 | 185 | 3.2 | 9.7 | 0.03 | 0.03 | 0.03 | 96 | 1021.0 |
| 20260905221246 | 16 | 160 | 4.8 | 16.1 | 0.00 | 0.00 | 0.00 | 96 | 1021.1 |
| 20260905220746 | 16 | 167 | 3.2 | 9.7 | 0.00 | 0.00 | 0.00 | 96 | 1021.1 |
| 20260905220245 | 16 | 142 | 6.4 | 16.1 | 0.00 | 0.00 | 0.00 | 96 | 1021.2 |
| 20260905215747 | 16 | 174 | 9.7 | 20.9 | 0.00 | 0.00 | 0.00 | 96 | 1021.2 |
| 20260905215246 | 16 | 180 | 8.0 | 14.5 | 0.00 | 0.00 | 0.00 | 96 | 1021.2 |
| 20260905214745 | 16 | 161 | 6.4 | 12.9 | 0.00 | 0.00 | 0.00 | 96 | 1021.2 |
| 20260905213745 | 16 | 168 | 6.4 | 11.3 | 0.00 | 0.00 | 0.00 | 95 | 1021.1 |
| 20260905213246 | 16 | 172 | 6.4 | 11.3 | 0.00 | 0.00 | 0.00 | 95 | 1021.3 |
| 20260905212246 | 16 | 174 | 6.4 | 12.9 | 0.00 | 0.00 | 0.00 | 95 | 1021.3 |
| 20260905211745 | 16 | 141 | 4.8 | 9.7 | 0.00 | 0.00 | 0.00 | 95 | 1021.4 |
| 20260905211246 | 16 | 144 | 3.2 | 8.0 | 0.00 | 0.00 | 0.00 | 95 | 1021.4 |
| 20260905210746 | 16 | 158 | 3.2 | 9.7 | 0.00 | 0.00 | 0.00 | 95 | 1021.5 |
| 20260905210246 | 16 | 161 | 3.2 | 9.7 | 0.00 | 0.00 | 0.00 | 95 | 1021.6 |
| 20260905205746 | 16 | 165 | 6.4 | 11.3 | 0.00 | 0.00 | 0.00 | 95 | 1021.6 |
| 20260905204246 | 16 | 179 | 8.0 | 11.3 | 0.00 | 0.00 | 0.00 | 95 | 1021.6 |
| 20260905203746 | 16 | 169 | 8.0 | 14.5 | 0.00 | 0.00 | 0.00 | 95 | 1021.5 |
| 20260905203247 | 16 | 179 | 8.0 | 12.9 | 0.00 | 0.00 | 0.00 | 94 | 1021.6 |
| 20260905202746 | 16 | 178 | 4.8 | 9.7 | 0.00 | 0.00 | 0.00 | 94 | 1021.6 |
| 20260905202247 | 16 | 159 | 3.2 | 4.8 | 0.00 | 0.00 | 0.00 | 94 | 1021.7 |
| 20260905201748 | 16 | 172 | 1.6 | 8.0 | 0.00 | 0.00 | 0.00 | 94 | 1021.7 |
| 20260905200246 | 16 | 180 | 3.2 | 9.7 | 0.00 | 0.00 | 0.00 | 92 | 1021.7 |
| 20260905195747 | 16 | 159 | 4.8 | 9.7 | 0.00 | 0.00 | 0.00 | 91 | 1021.6 |
| 20260905195247 | 17 | 200 | 1.6 | 9.7 | 0.00 | 0.00 | 0.00 | 90 | 1021.7 |
| 20260905194746 | 17 | 229 | 1.6 | 8.0 | 0.00 | 0.00 | 0.00 | 89 | 1021.7 |
| 20260905194247 | 17 | 336 | 1.6 | 11.3 | 0.00 | 0.00 | 0.00 | 88 | 1021.7 |
| 20260905193247 | 17 | 187 | 4.8 | 12.9 | 0.00 | 0.00 | 0.00 | 86 | 1021.6 |
| 20260905192747 | 17 | 180 | 3.2 | 9.7 | 0.00 | 0.00 | 0.00 | 86 | 1021.5 |
| 20260905192247 | 17 | 174 | 3.2 | 9.7 | 0.00 | 0.00 | 0.00 | 86 | 1021.6 |
| 20260905191246 | 17 | 184 | 4.8 | 9.7 | 0.00 | 0.00 | 0.00 | 86 | 1021.5 |
| 20260905190248 | 17 | 158 | 3.2 | 9.7 | 0.00 | 0.00 | 0.00 | 86 | 1021.6 |
| 20260905185746 | 17 | 171 | 4.8 | 9.7 | 0.00 | 0.00 | 0.00 | 86 | 1021.6 |
| 20260905185247 | 17 | 174 | 3.2 | 8.0 | 0.00 | 0.00 | 0.00 | 86 | 1021.7 |
| 20260905184747 | 17 | 168 | 8.0 | 12.9 | 0.00 | 0.00 | 0.00 | 86 | 1021.7 |
| 20260905184247 | 17 | 178 | 4.8 | 12.9 | 0.00 | 0.00 | 0.00 | 86 | 1021.6 |
| 20260905183247 | 17 | 185 | 8.0 | 11.3 | 0.00 | 0.00 | 0.00 | 86 | 1021.7 |
| 20260905182748 | 17 | 170 | 8.0 | 12.9 | 0.00 | 0.00 | 0.00 | 86 | 1021.6 |
| 20260905181748 | 17 | 152 | 8.0 | 14.5 | 0.00 | 0.00 | 0.00 | 86 | 1021.7 |
| 20260905181248 | 17 | 153 | 3.2 | 11.3 | 0.00 | 0.00 | 0.00 | 85 | 1021.7 |
| 20260905180747 | 17 | 176 | 8.0 | 16.1 | 0.00 | 0.00 | 0.00 | 85 | 1021.6 |
| 20260905180248 | 17 | 163 | 8.0 | 16.1 | 0.00 | 0.00 | 0.00 | 85 | 1021.7 |
| 20260905175748 | 17 | 132 | 8.0 | 12.9 | 0.00 | 0.00 | 0.00 | 84 | 1021.6 |
| 20260905175249 | 17 | 156 | 9.7 | 11.3 | 0.00 | 0.00 | 0.00 | 84 | 1021.7 |
| 20260905174747 | 17 | 170 | 8.0 | 16.1 | 0.00 | 0.00 | 0.00 | 83 | 1021.7 |
| 20260905174248 | 17 | 170 | 8.0 | 14.5 | 0.00 | 0.00 | 0.00 | 83 | 1021.8 |
| 20260905173248 | 17 | 149 | 4.8 | 12.9 | 0.00 | 0.00 | 0.00 | 83 | 1021.9 |
| 20260905172747 | 17 | 150 | 6.4 | 11.3 | 0.00 | 0.00 | 0.00 | 82 | 1021.9 |
| 20260905172248 | 17 | 136 | 6.4 | 9.7 | 0.00 | 0.00 | 0.00 | 82 | 1021.9 |
| 20260905171748 | 17 | 150 | 4.8 | 11.3 | 0.00 | 0.00 | 0.00 | 82 | 1021.9 |
| 20260905171248 | 17 | 149 | 8.0 | 11.3 | 0.00 | 0.00 | 0.00 | 82 | 1021.9 |
| 20260905170747 | 17 | 178 | 4.8 | 12.9 | 0.00 | 0.00 | 0.00 | 81 | 1022.0 |
| 20260905165748 | 17 | 182 | 9.7 | 19.3 | 0.00 | 0.00 | 0.00 | 80 | 1022.0 |
| 20260905164747 | 17 | 175 | 4.8 | 16.1 | 0.00 | 0.00 | 0.00 | 80 | 1022.1 |
| 20260905164248 | 17 | 168 | 4.8 | 11.3 | 0.00 | 0.00 | 0.00 | 80 | 1022.1 |
| 20260905163749 | 17 | 309 | 0.0 | 9.7 | 0.00 | 0.00 | 0.00 | 80 | 1022.3 |
| 20260905163248 | 17 | 167 | 11.3 | 16.1 | 0.00 | 0.00 | 0.00 | 80 | 1022.3 |
| 20260905162749 | 17 | 173 | 1.6 | 14.5 | 0.00 | 0.00 | 0.00 | 80 | 1022.4 |
| 20260905162249 | 17 | 176 | 11.3 | 16.1 | 0.00 | 0.00 | 0.00 | 79 | 1022.4 |
| 20260905161749 | 17 | 166 | 11.3 | 27.4 | 0.00 | 0.00 | 0.00 | 79 | 1022.5 |
| 20260905161249 | 17 | 202 | 4.8 | 14.5 | 0.00 | 0.00 | 0.00 | 78 | 1022.5 |
| 20260905160748 | 17 | 174 | 4.8 | 11.3 | 0.00 | 0.00 | 0.00 | 78 | 1022.6 |
| 20260905160249 | 17 | 169 | 4.8 | 12.9 | 0.00 | 0.00 | 0.00 | 78 | 1022.6 |
| 20260905155749 | 18 | 197 | 9.7 | 16.1 | 0.00 | 0.00 | 0.00 | 77 | 1022.6 |
| 20260905155248 | 18 | 185 | 6.4 | 16.1 | 0.00 | 0.00 | 0.00 | 77 | 1022.6 |
| 20260905154248 | 17 | 187 | 11.3 | 19.3 | 0.00 | 0.00 | 0.00 | 77 | 1022.7 |
| 20260905153749 | 17 | 157 | 11.3 | 20.9 | 0.00 | 0.00 | 0.00 | 76 | 1022.7 |
| 20260905153250 | 18 | 171 | 11.3 | 19.3 | 0.00 | 0.00 | 0.00 | 76 | 1022.8 |
| 20260905152749 | 18 | 157 | 14.5 | 22.5 | 0.00 | 0.00 | 0.00 | 75 | 1022.8 |
| 20260905152249 | 18 | 166 | 9.7 | 14.5 | 0.00 | 0.00 | 0.00 | 75 | 1022.7 |
| 20260905151248 | 18 | 168 | 8.0 | 19.3 | 0.00 | 0.00 | 0.00 | 75 | 1022.8 |
| 20260905150749 | 18 | 193 | 11.3 | 24.1 | 0.00 | 0.00 | 0.00 | 75 | 1022.7 |
| 20260905150250 | 18 | 206 | 3.2 | 14.5 | 0.00 | 0.00 | 0.00 | 74 | 1022.9 |
| 20260905145750 | 18 | 193 | 4.8 | 12.9 | 0.00 | 0.00 | 0.00 | 74 | 1023.0 |
| 20260905145249 | 18 | 282 | 3.2 | 9.7 | 0.00 | 0.00 | 0.00 | 73 | 1023.0 |
| 20260905144749 | 18 | 206 | 4.8 | 12.9 | 0.00 | 0.00 | 0.00 | 73 | 1023.0 |
| 20260905144251 | 18 | 339 | 1.6 | 8.0 | 0.00 | 0.00 | 0.00 | 74 | 1023.1 |
| 20260905143753 | 18 | 196 | 4.8 | 11.3 | 0.00 | 0.00 | 0.00 | 75 | 1023.2 |
| 20260905142902 | 18 | 176 | 11.3 | 14.5 | 0.00 | 0.00 | 0.00 | 74 | 1023.3 |
| 20260905142252 | 18 | 159 | 9.7 | 19.3 | 0.00 | 0.00 | 0.00 | 75 | 1023.3 |
| 20260905141254 | 18 | 172 | 4.8 | 16.1 | 0.00 | 0.00 | 0.00 | 73 | 1023.4 |
| 20260905140749 | 18 | 162 | 8.0 | 14.5 | 0.00 | 0.00 | 0.00 | 73 | 1023.4 |
| 20260905140250 | 18 | 200 | 3.2 | 9.7 | 0.00 | 0.00 | 0.00 | 72 | 1023.5 |
| 20260905135751 | 18 | 200 | 3.2 | 11.3 | 0.00 | 0.00 | 0.00 | 73 | 1023.5 |
| 20260905135249 | 18 | 283 | 3.2 | 12.9 | 0.00 | 0.00 | 0.00 | 71 | 1023.5 |
| 20260905134750 | 18 | 282 | 1.6 | 9.7 | 0.00 | 0.00 | 0.00 | 72 | 1023.6 |
| 20260905134250 | 18 | 323 | 8.0 | 19.3 | 0.00 | 0.00 | 0.00 | 72 | 1023.7 |
| 20260905133751 | 18 | 332 | 1.6 | 9.7 | 0.00 | 0.00 | 0.00 | 72 | 1023.7 |
| 20260905133250 | 18 | 207 | 8.0 | 12.9 | 0.00 | 0.00 | 0.00 | 73 | 1023.7 |
| 20260905132750 | 18 | 195 | 1.6 | 11.3 | 0.00 | 0.00 | 0.00 | 72 | 1023.7 |
| 20260905132251 | 18 | 171 | 9.7 | 14.5 | 0.00 | 0.00 | 0.00 | 72 | 1023.7 |
| 20260905131749 | 18 | 215 | 4.8 | 14.5 | 0.00 | 0.00 | 0.00 | 73 | 1023.6 |
| 20260905131250 | 18 | 197 | 8.0 | 16.1 | 0.00 | 0.00 | 0.00 | 71 | 1023.6 |
| 20260905130750 | 18 | 161 | 3.2 | 9.7 | 0.00 | 0.00 | 0.00 | 71 | 1023.6 |
| 20260905130250 | 18 | 147 | 4.8 | 16.1 | 0.00 | 0.00 | 0.00 | 71 | 1023.6 |
| 20260905125751 | 19 | 156 | 11.3 | 16.1 | 0.00 | 0.00 | 0.00 | 70 | 1023.6 |
| 20260905124750 | 19 | 174 | 3.2 | 11.3 | 0.00 | 0.00 | 0.00 | 70 | 1023.6 |
| 20260905124251 | 19 | 284 | 3.2 | 12.9 | 0.00 | 0.00 | 0.00 | 69 | 1023.6 |
| 20260905123750 | 19 | 187 | 9.7 | 19.3 | 0.00 | 0.00 | 0.00 | 70 | 1023.5 |
| 20260905123250 | 19 | 266 | 4.8 | 9.7 | 0.00 | 0.00 | 0.00 | 67 | 1023.5 |
| 20260905122750 | 19 | 283 | 3.2 | 14.5 | 0.00 | 0.00 | 0.00 | 69 | 1023.5 |
| 20260905122250 | 19 | 321 | 3.2 | 14.5 | 0.00 | 0.00 | 0.00 | 66 | 1023.5 |
| 20260905121250 | 19 | 173 | 3.2 | 16.1 | 0.00 | 0.00 | 0.00 | 68 | 1023.5 |
| 20260905120750 | 19 | 160 | 8.0 | 14.5 | 0.00 | 0.00 | 0.00 | 69 | 1023.4 |
| 20260905120251 | 19 | 76 | 4.8 | 11.3 | 0.00 | 0.00 | 0.00 | 68 | 1023.4 |
| 20260905115751 | 19 | 183 | 8.0 | 14.5 | 0.00 | 0.00 | 0.00 | 68 | 1023.4 |
| 20260905115251 | 19 | 179 | 4.8 | 11.3 | 0.00 | 0.00 | 0.00 | 66 | 1023.4 |
| 20260905114751 | 19 | 261 | 6.4 | 12.9 | 0.00 | 0.00 | 0.00 | 64 | 1023.5 |
| 20260905114251 | 19 | 330 | 3.2 | 9.7 | 0.00 | 0.00 | 0.00 | 66 | 1023.4 |
| 20260905113751 | 19 | 259 | 1.6 | 8.0 | 0.00 | 0.00 | 0.00 | 64 | 1023.5 |
| 20260905113252 | 18 | 214 | 1.6 | 9.7 | 0.00 | 0.00 | 0.00 | 65 | 1023.4 |
| 20260905112751 | 18 | 347 | 3.2 | 12.9 | 0.00 | 0.00 | 0.00 | 65 | 1023.5 |
| 20260905112251 | 18 | 198 | 3.2 | 9.7 | 0.00 | 0.00 | 0.00 | 65 | 1023.5 |
| 20260905111751 | 18 | 309 | 3.2 | 9.7 | 0.00 | 0.00 | 0.00 | 66 | 1023.4 |